Printer-friendly version

IAU Minor Planet Center

Minor Planet Center

MPEC 2006-E37 : 2006 EY52

The following Minor Planet Electronic Circular may be linked-to from your own Web pages, but must not otherwise be redistributed electronically.


Read MPEC 2006-E36 Read MPEC 2006-E38


M.P.E.C. 2006-E37                                Issued 2006 Mar.  9, 18:16 UT

     The Minor Planet Electronic Circulars contain information on unusual
         minor planets and routine data on comets.  They are published
   on behalf of Commission 20 of the International Astronomical Union by the
          Minor Planet Center, Smithsonian Astrophysical Observatory,
                          Cambridge, MA 02138, U.S.A.

                  Supported in part by the Brinson Foundation
                  Supported in part by the TABASGO Foundation
             Prepared using the Tamkin Foundation Computer Network

                              MPC@CFA.HARVARD.EDU
          URL http://cfa-www.harvard.edu/iau/mpc.html  ISSN 1523-6714

                                   2006 EY52

Observations:
     K06E52Y* C2006 03 05.43295 12 45 56.19 -07 44 26.9          21.6 V EE037691
     K06E52Y  C2006 03 05.45026 12 45 54.99 -07 44 17.5          21.1 V EE037691
     K06E52Y  C2006 03 05.46755 12 45 53.73 -07 44 07.9          21.3 V EE037691
     K06E52Y  C2006 03 06.35027 12 44 53.29 -07 36 10.3          22.0 V EE037291
     K06E52Y  C2006 03 06.35610 12 44 52.85 -07 36 07.0          21.6 V EE037291
     K06E52Y  C2006 03 06.36120 12 44 52.49 -07 36 04.2          21.7 V EE037291
     K06E52Y  C2006 03 06.42986 12 44 47.26 -07 35 28.0          21.2 R EE037734
     K06E52Y  C2006 03 06.43721 12 44 46.93 -07 35 23.0          21.4 R EE037734
     K06E52Y  C2006 03 06.44603 12 44 46.17 -07 35 18.3          21.6 R EE037734
     K06E52Y  C2006 03 09.29767 12 41 21.89 -07 08 22.1          21.7 V EE037291
     K06E52Y  C2006 03 09.30443 12 41 21.38 -07 08 18.2          21.5 V EE037291
     K06E52Y  C2006 03 09.30848 12 41 21.05 -07 08 15.8          21.5 V EE037291
     K06E52Y  C2006 03 09.45030 12 41 10.16 -07 06 53.1          21.3 V EE037691
     K06E52Y  C2006 03 09.46759 12 41 08.83 -07 06 43.0          21.2 V EE037691
     K06E52Y  C2006 03 09.48492 12 41 07.51 -07 06 32.3          21.4 V EE037691

Observer details:
291 LPL/Spacewatch II.  Observers M. Block, T. H. Bressi.  1.8-m f/2.7
    reflector + CCD.
691 Steward Observatory, Kitt Peak.  Observers M. Block, T. H. Bressi.  0.9-m
    f/3 reflector + CCD.
734 Farpoint Observatory.  Observer D. Tibbets.  0.7-m reflector + CCD.

Orbital elements:
2006 EY52                                                Earth MOID = 0.1340 AU
Epoch 2006 Mar. 6.0 TT = JDT 2453800.5                  MPC
M  68.40361              (2000.0)            P               Q
n   0.38175356     Peri.  221.57228     +0.44586588     -0.89482866
a   1.8819756      Node   201.97653     +0.83599342     +0.42509276
e   0.4069192      Incl.    3.37474     +0.31987282     +0.13630049
P   2.58           H   19.5           G   0.15           U   9
Residuals in seconds of arc
060305 691  0.2-  0.2-    060306 291  0.3+  0.1+    060309 291  0.0   0.0
060305 691  0.3+  0.1-    060306 734  1.5-  0.6-    060309 291  0.3-  0.1+
060305 691  0.2-  0.2+    060306 734  1.5+  0.3+    060309 691  0.1+  0.2-
060306 291  0.3+  0.0     060306 734  0.3-  0.2+    060309 691  0.1+  0.2-
060306 291  0.1+  0.1+    060309 291  0.1-  0.0     060309 691  0.2+  0.3+

Ephemeris:
2006 EY52                a,e,i = 1.88, 0.41, 3                   q = 1.1162
Date    TT    R. A. (2000) Decl.     Delta      r     Elong.  Phase     V
2006 03 06    12 45.29   -07 39.3    0.972    1.905   151.7    14.3    21.6
2006 03 16    12 32.75   -05 59.5    0.976    1.954   165.1     7.5    21.4
2006 03 26    12 19.40   -04 09.9    1.005    2.003   177.9     1.1    21.2
2006 04 05    12 07.15   -02 25.1    1.061    2.049   167.5     6.1    21.7
2006 04 15    11 57.49   -00 57.5    1.142    2.094   155.0    11.7    22.1

Gareth V. Williams           (C) Copyright 2006 MPC           M.P.E.C. 2006-E37

Read MPEC 2006-E36 Read MPEC 2006-E38


Our Web policy. Index to the CBAT/MPC/ICQ pages.


Valid HTML 4.01!